Regional Weather Roundup
Issued by NWS

Home | Current Version | Previous Version | Text Only | Print | Product List | Glossary On
Versions: 1 2 3 4 5 6 7 8 9 10 11 12 13 14 15 16 17 18 19 20 21 22 23 24 25 26 27 28 29 30 31 32 33 34 35 36 37 38 39 40 41 42 43 44 45 46 47 48 49 50
000
ASUS43 KMPX 210210
RWRMN
WEATHER ROUNDUP FOR MINNESOTA
NATIONAL WEATHER SERVICE TWIN CITIES/CHANHASSEN MN
900 PM CDT SAT SEP 20 2014


NOTE: "FAIR" INDICATES FEW OR NO CLOUDS BELOW 12,000 FEET WITH NO
SIGNIFICANT WEATHER AND/OR OBSTRUCTIONS TO VISIBILITY. N/A MEANS
CURRENT SKY AND/OR WEATHER CONDITIONS ARE NOT AVAILABLE.

MNZ060>063-068>070-210300-
   Twin Cities Metro

CITY           SKY/WX    TMP DP  RH WIND       PRES   REMARKS
TWIN CITIES    PTCLDY    59  53  80 W15       29.85R
ST PAUL        CLEAR     59  54  83 W15G24    29.84R
CRYSTAL        CLEAR     60  51  72 W12       29.83R
BLAINE         PTCLDY    61  55  82 W12G20    29.82R
LAKEVILLE      CLEAR     55  54  94 W13G20    29.86R
EDEN PRAIRIE   CLEAR     59  54  83 W13       29.85R
SOUTH ST PAUL  CLEAR     59  55  85 W12G18    29.84R
LAKE ELMO      FAIR      59  55  88 W15       29.84R
$$
MNZ001>005-007-008-013>017-022>024-027-028-210300-
   Northwest Minnesota

CITY           SKY/WX    TMP DP  RH WIND       PRES   REMARKS
BEMIDJI        MOCLDY    49  47  94 NW7       29.85R
HALLOCK        PTCLDY    54  52  94 W5        29.90R
ROSEAU         MOCLDY    48  45  87 N3        29.87R
WARROAD        DRIZZLE   52  46  82 NW3       29.87R
THIEF RVR FALL CLOUDY    54  50  87 NW8       29.87S
CROOKSTON      LGT RAIN  55  52  88 N3        29.89
FOSSTON        CLOUDY    52  50  93 NW7       29.89R
DETROIT LAKES  RAIN      54  52  94 N14       29.90R
MOORHEAD       MOCLDY    59  54  82 N9        29.90R
PARK RAPIDS    MOCLDY    56  46  69 NW18G26   29.85R
MAHNOMEN       CLOUDY    54  51  91 N3        29.88R
$$
MNZ006-009>011-018-025>026-210300-
   North Central Minnesota

CITY           SKY/WX    TMP DP  RH WIND       PRES   REMARKS
BAUDETTE       LGT RAIN  51  49  92 NW10      29.84R
FLAG ISLAND    LGT RAIN  52  50  93 N12       29.85R
INTL FALLS     RAIN      52  51  97 NW13      29.79R FOG
WASKISH        LGT RAIN  52  48  87 NW6       29.84R
BIG FORK       LGT RAIN  50  48  93 NW9       29.80R
LONGVILLE      CLOUDY    52  50  93 NW10G18   29.81R
GRAND RAPIDS   CLOUDY    52  46  82 NW24G33   29.75R
CRANE LAKE     CLOUDY    54  50  87 CALM      29.75R
ORR            CLOUDY    54  46  76 NW3       29.72R
COOK           CLOUDY    54  50  87 CALM      29.73R
WALKER         MOCLDY    51  47  86 NW6       29.83R
$$
MNZ012-019>021-037-210300-
   Northeast Minnesota

CITY           SKY/WX    TMP DP  RH WIND       PRES   REMARKS
DULUTH         RAIN      55  52  89 NW7       29.70R FOG
ELY            CLOUDY    52  48  87 CALM      29.72R
HIBBING        RAIN      55  52  89 N13       29.72R
EVELETH        CLOUDY    54  54 100 NW5       29.72R
DULUTH HARBOR  DRIZZLE   55  54  94 SW6       29.71F
TWO HARBORS    CLOUDY    55  48  76 CALM      29.68S
SILVER BAY     CLOUDY    52  52 100 SW5       29.69R
GRAND MARAIS     N/A     56  53  90 CALM      29.70R
G MARAIS ARPRT CLOUDY    52  46  82 N3        29.73R
$$
MNZ029>031-032-039>041-046>048-054>057-064-210300-
   West Central Minnesota

CITY           SKY/WX    TMP DP  RH WIND       PRES   REMARKS
FERGUS FALLS   PTCLDY    55  46  71 N5        29.90R
WHEATON        CLEAR     57  48  72 W8        29.93R
MORRIS         CLEAR     55  52  88 W8        29.89S
ALEXANDRIA     CLEAR     56  50  80 W8        29.89R
ELBOW LAKE     MOCLDY    55  51  87 W8        29.89R
WADENA         PTCLDY    55  48  76 NW7       29.86R
GLENWOOD       CLEAR     54  52  94 W8        29.89S
APPLETON       CLEAR     57  50  77 W6        29.91R
BENSON         CLEAR     54  52  94 W6        29.90S
ORTONVILLE     CLEAR     63  48  59 NW7       29.92S
MADISON        CLEAR     57  52  82 W8        29.93S
WILLMAR        FAIR      55  52  88 W6        29.91R
$$
MNZ033>034-036-042>043-049>051-058-059-210300-
   Central Minnesota

CITY           SKY/WX    TMP DP  RH WIND       PRES   REMARKS
ST CLOUD       CLEAR     59  49  69 W10       29.84R
SAUK CENTRE    FAIR      52  49  90 W6        29.87S
PAYNESVILLE    CLEAR     50  49  97 SW7       29.89R
AITKIN         MIX PCPN  57  52  82 NW6       29.76R
PINE RIVER     PTCLDY    55  48  76 NW15G28   29.85R
BRAINERD       PTCLDY    56  49  77 W20G28    29.81R
STAPLES        CLEAR     55  48  76 NW10      29.85R
LONG PRAIRIE   FAIR      54  48  82 W7        29.87R
LITTLE FALLS   CLEAR     54  46  76 W5        29.84R
LITCHFIELD     CLEAR     57  55  94 W7        29.89R
BUFFALO        CLEAR     57  50  77 W9        29.87R
MAPLE LAKE     CLEAR     57  52  82 W6        29.87R
$$
MNZ037-044-045-052-053-210300-
   East Central Minnesota

CITY           SKY/WX    TMP DP  RH WIND       PRES   REMARKS
PRINCETON      CLEAR     57  50  77 W8        29.82R
MORA           CLEAR     55  48  76 W10G17    29.79S
CAMBRIDGE      CLEAR     59  48  67 W7        29.79R
RUSH CITY      MOCLDY    55  51  86 W5        29.78S
MOOSE LAKE     CLOUDY    55  50  82 W8G16     29.72R
HINCKLEY       FAIR      55  52  88 W8        29.76S
CLOQUET        RAIN      54  52  94 NW3       29.71S
MCGREGOR       CLOUDY    54  52  94 W13G20    29.75R
$$
MNZ071>073-080-081-089-090-097-098-210300-
   Southwest Minnesota

CITY           SKY/WX    TMP DP  RH WIND       PRES   REMARKS
MONTEVIDEO     CLEAR     57  55  94 NW7       29.93R
GRANITE FALLS  CLEAR     53  51  95 SW7       29.94R
CANBY          CLEAR     60  48  66 W12       29.96R
MARSHALL       CLEAR     57  48  72 W10       29.94R
REDWOOD FALLS  CLEAR     58  55  90 W6        29.92R
OLIVIA         CLEAR     57  54  88 W6        29.91R
PIPESTONE      PTCLDY    63  45  51 NW6       30.01R
WINDOM         CLEAR     59  54  82 W9        29.96R
WORTHINGTON    PTCLDY    57  52  82 NW9       29.99R
JACKSON        CLEAR     59  54  82 NW12      29.97R
TRACY          CLEAR     59  54  82 W6        29.96R
SLAYTON        PTCLDY    58  52  81 CALM      30.00R
$$
MNZ065>067-074>077-082>085-091>093-210300-
   South Central Minnesota

CITY           SKY/WX    TMP DP  RH WIND       PRES   REMARKS
MANKATO        CLEAR     57  52  82 NW14      29.90R
NEW ULM        CLEAR     57  57 100 W9        29.92R
ST JAMES       CLEAR     59  55  88 W8        29.94R
FAIRMONT       CLEAR     59  52  77 NW13      29.94R
GLENCOE        CLEAR     59  51  76 W8        29.89R
FARIBAULT      CLEAR     61  54  77 W12         N/A
OWATONNA       PTCLDY    57  55  94 W13       29.89R
WASECA         CLEAR     55  52  88 W9G17     29.91R
ALBERT LEA     CLEAR     57  57 100 NW13G22   29.89R
$$
MNZ078>079-086>088-094>096-210300-
   Southeast Minnesota

CITY           SKY/WX    TMP DP  RH WIND       PRES   REMARKS
ROCHESTER      CLOUDY    59  56  89 NW15G22   29.85R
RED WING       PTCLDY    59  57  94 W10       29.81R
STANTON        PTCLDY    59  55  87 W9G16     29.84R
DODGE CENTER   MOCLDY    57  55  94 NW15G23   29.87R
WINONA         CLOUDY    61  59  94 W3        29.79R
AUSTIN         MOCLDY    57  55  94 NW16      29.87R
PRESTON        CLOUDY    58  58 100 W8        29.82R
$$
ABBREVIATIONS USED IN REMARKS
   TC - TEMPERATURES IN CELSIUS
  WCI - WIND CHILL INDEX
   HX - HEAT INDEX
  VSB - VISIBILITY
$$


USA.gov is the U.S. government's official web portal to all federal, state and local government web resources and services.